CZ-6A DEB, 54492

Orbit data source: Space-Track

CZ-6A DEB, 54492 is space debris in SSO originally from a launch on Fri, 11 Nov 2022 UTC launched from the Taiyaun Space Center, China (TSC). Debris objects in space refer to the collection of defunct objects orbiting the Earth. Examples of debris include non-operational satellites, rocket bodies, and fragments generated from explosions, collisions, or faulty payload assembly.

Loading next visibility...
Identifier
54492, 2022-151HU
Orbit
SSO
Country
Flag of CNCN / PRC
Related business
Manufacturer
SAST
Mission
Spacecraft
Bus & Motor
Unknown
Mass
Unknown
Launch date (UTC)
2022-11-11 (4 years ago)
Launch vehicle
Unknown
Launch site
Taiyaun Space Center, China (TSC)
Object type
Payload
Rocket body
Debris
Shape & HBR
Unknown shape, 0.1 m
Radar Cross Section
Medium (>0.1 m² and <1 m²)

Expand to show TLE details & history
Last TLE update: 10 hours ago

TLE from 10 hours ago
0 CZ-6A DEB
1 54492U 22151HU  26238.40614888  .00000012  00000-0  39938-4 0  9994
2 54492  98.9702 212.3405 0121663 256.2449 102.5146 13.93391642192056
Epoch: 2026-08-26T09:44Z
TLE epoch observation values (Epoch: 2026-08-26T09:44:51.263Z)
Latitude
Longitude
91.4673°
Altitude
939.899 km
Speed
7.372 km/s
True Right ascension
14h 09m 21s
True Declination
0° 00' 00"
Sunlit
Object was in daylight at epoch
Visualization orbit readout
Latitude
Unknown
Longitude
Unknown
Altitude
Unknown
Speed
Unknown
Apparent Right ascension
Unknown
Apparent Declination
Unknown
Sunlit
N/A
Visualization observer readout
Local Sidereal Time
11:20:58
Azimuth
Unknown
Elevation
Unknown
Doppler factor
Unknown
Orbital elements
Apogee altitude
1,002.693 km
Perigee altitude
825.257 km
Semi-major axis
7,292.112 km
Eccentricity
0.01217
Inclination
98.9702°
RAAN
212.3405°
Arg. of periapsis
256.2449°
True anomaly
103.87103°
Mean anomaly
102.5146°
Eccentric anomaly
103.19328°
Mean motion
3.48548 °/min
Orbital period
103.29 mins
BSTAR
0.000039938
Loading maneuver chart data...
Computing Atmospheric mass density...
Loading historical data...
Loading historical data...
Loading historical data...
Loading historical data...
Loading historical data...
Loading historical data...
Loading historical data...

Documentation

Showing up to 5 results
|